This is the latest recevied weather packets stored in our database for station/object AE5HO. If no packets are shown the sender has not sent any weather packets the latest 10 day(s).
| Time | Temp. | Humidity | Pressure | Rain* | Wind** | Luminosity | Snow |
|---|---|---|---|---|---|---|---|
| 1787842218 | 30° C | 72% | 1016.8 hPa | 0 mm | - | 65 W/m² | - |
| 1787841913 | 29.44° C | 72% | 1016.4 hPa | 0 mm | - | 55 W/m² | - |
| 1787841609 | 29.44° C | 72% | 1016.4 hPa | 0 mm | - | 59 W/m² | - |
| 1787841308 | 29.44° C | 73% | 1016.4 hPa | 0 mm | - | 60 W/m² | - |
| 1787841003 | 29.44° C | 73% | 1016.5 hPa | 0 mm | - | 60 W/m² | - |
| 1787840698 | 28.89° C | 74% | 1016.4 hPa | 0 mm | - | 48 W/m² | - |
| 1787840393 | 28.89° C | 73% | 1016.7 hPa | 0 mm | - | 45 W/m² | - |
| 1787840089 | 28.89° C | 75% | 1016.5 hPa | 0 mm | - | 44 W/m² | - |
| 1787839784 | 28.89° C | 75% | 1016.6 hPa | 0 mm | - | 43 W/m² | - |
| 1787839483 | 28.33° C | 75% | 1016.5 hPa | 0 mm | - | 40 W/m² | - |
| 1787839182 | 28.33° C | 76% | 1016.2 hPa | 0 mm | - | 38 W/m² | - |
| 1787838877 | 28.33° C | 76% | 1016.2 hPa | 0 mm | - | 37 W/m² | - |
| 1787838577 | 28.33° C | 77% | 1016.2 hPa | 0 mm | - | 35 W/m² | - |
| 1787838276 | 28.33° C | 77% | 1016.2 hPa | 0 mm | - | 33 W/m² | - |
| 1787837974 | 27.78° C | 77% | 1016.1 hPa | 0 mm | - | 33 W/m² | - |
| 1787837674 | 27.78° C | 77% | 1016.3 hPa | 0 mm | - | 32 W/m² | - |
| 1787837369 | 27.78° C | 78% | 1016.2 hPa | 0 mm | - | 29 W/m² | - |
| 1787837065 | 27.78° C | 79% | 1016.4 hPa | 0 mm | - | 28 W/m² | - |
| 1787836763 | 27.22° C | 81% | 1016.3 hPa | 0 mm | - | 27 W/m² | - |
| 1787836459 | 26.67° C | 81% | 1016.2 hPa | 0 mm | - | 26 W/m² | - |
| 1787836154 | 26.67° C | 83% | 1016.2 hPa | 0 mm | - | 23 W/m² | - |
| 1787835850 | 26.11° C | 84% | 1016.1 hPa | 0 mm | - | 22 W/m² | - |
| 1787835549 | 26.11° C | 85% | 1015.8 hPa | 0 mm | - | 21 W/m² | - |
| 1787835244 | 25.56° C | 86% | 1016 hPa | 0 mm | - | 18 W/m² | - |
| 1787834939 | 25.56° C | 86% | 1015.7 hPa | 0 mm | - | 16 W/m² | - |
* Rain latest hour (hover to see other rain measurements)
** Current wind speed in m/s (hover to see current wind gust speed)